TimeMDT,TemperatureF,Dew PointF,Humidity,Sea Level PressureIn,VisibilityMPH,Wind Direction,Wind SpeedMPH,Gust SpeedMPH,PrecipitationIn,Events,Conditions,WindDirDegrees,DateUTC
12:52 AM,50.0,21.9,33,29.84,10.0,Variable,6.9,-,N/A,,Clear,0,2013-06-22 06:52:00
1:52 AM,48.0,21.9,36,29.85,10.0,South,8.1,-,N/A,,Clear,190,2013-06-22 07:52:00
2:52 AM,48.0,21.9,36,29.85,10.0,Calm,Calm,-,N/A,,Clear,0,2013-06-22 08:52:00
3:52 AM,50.0,21.9,33,29.83,10.0,WSW,9.2,-,N/A,,Clear,240,2013-06-22 09:52:00
4:52 AM,52.0,19.0,27,29.83,10.0,SSW,11.5,-,N/A,,Clear,210,2013-06-22 10:52:00
5:52 AM,46.0,21.9,39,29.87,10.0,Calm,Calm,-,N/A,,Clear,0,2013-06-22 11:52:00
6:52 AM,51.1,21.0,31,29.88,10.0,SW,6.9,-,N/A,,Clear,220,2013-06-22 12:52:00
7:52 AM,55.0,25.0,31,29.89,10.0,SSE,5.8,-,N/A,,Clear,150,2013-06-22 13:52:00
8:52 AM,63.0,26.1,25,29.88,10.0,SSW,9.2,-,N/A,,Clear,200,2013-06-22 14:52:00
9:52 AM,73.0,19.9,14,29.84,10.0,SW,15.0,20.7,N/A,,Clear,230,2013-06-22 15:52:00
10:52 AM,75.0,18.0,12,29.82,10.0,South,11.5,23.0,N/A,,Clear,190,2013-06-22 16:52:00
11:52 AM,77.0,17.1,10,29.84,10.0,SSW,8.1,18.4,N/A,,Clear,200,2013-06-22 17:52:00
12:52 PM,80.1,17.1,9,29.82,10.0,SSW,25.3,33.4,N/A,,Clear,210,2013-06-22 18:52:00
1:52 PM,82.0,12.0,7,29.81,10.0,SW,18.4,27.6,N/A,,Clear,230,2013-06-22 19:52:00
2:52 PM,81.0,10.9,7,29.79,10.0,WSW,23.0,27.6,N/A,,Clear,240,2013-06-22 20:52:00
3:52 PM,82.0,12.0,7,29.76,10.0,SW,13.8,24.2,N/A,,Clear,230,2013-06-22 21:52:00
4:52 PM,81.0,9.0,6,29.74,10.0,West,21.9,28.8,N/A,,Clear,270,2013-06-22 22:52:00
5:52 PM,80.1,7.0,6,29.76,10.0,West,21.9,28.8,N/A,,Clear,260,2013-06-22 23:52:00
6:52 PM,78.1,8.1,7,29.75,10.0,WSW,18.4,26.5,N/A,,Clear,250,2013-06-23 00:52:00
7:52 PM,70.0,15.1,12,29.79,10.0,West,16.1,-,N/A,,Clear,260,2013-06-23 01:52:00
8:52 PM,63.0,17.1,17,29.81,10.0,WSW,9.2,-,N/A,,Overcast,240,2013-06-23 02:52:00
9:52 PM,57.9,16.0,19,29.81,10.0,SW,6.9,-,N/A,,Partly Cloudy,230,2013-06-23 03:52:00
10:52 PM,52.0,18.0,26,29.84,10.0,South,3.5,-,N/A,,Overcast,170,2013-06-23 04:52:00
11:52 PM,46.9,15.1,28,29.86,10.0,SW,6.9,-,N/A,,Partly Cloudy,230,2013-06-23 05:52:00